TimeMST,TemperatureF,Dew PointF,Humidity,Sea Level PressureIn,VisibilityMPH,Wind Direction,Wind SpeedMPH,Gust SpeedMPH,PrecipitationIn,Events,Conditions,WindDirDegrees,DateUTC
12:56 AM,33.1,32.0,96,30.19,-9999.0,Calm,Calm,-,N/A,,Unknown,0,2012-11-05 07:56:00
1:56 AM,33.1,33.1,100,30.19,-9999.0,West,3.5,-,N/A,,Unknown,280,2012-11-05 08:56:00
2:56 AM,30.9,30.0,96,30.16,-9999.0,Calm,Calm,-,N/A,,Unknown,0,2012-11-05 09:56:00
3:56 AM,28.0,28.0,100,30.16,-9999.0,Calm,Calm,-,N/A,,Unknown,0,2012-11-05 10:56:00
4:56 AM,27.0,25.0,92,30.15,-9999.0,Calm,Calm,-,N/A,,Unknown,0,2012-11-05 11:56:00
5:56 AM,27.0,26.1,96,30.13,-9999.0,SE,3.5,-,N/A,,Unknown,140,2012-11-05 12:56:00
6:56 AM,28.9,27.0,92,30.11,-9999.0,ESE,5.8,-,N/A,,Unknown,120,2012-11-05 13:56:00
7:56 AM,30.9,30.0,96,30.11,-9999.0,South,3.5,-,N/A,,Unknown,170,2012-11-05 14:56:00
8:56 AM,33.1,33.1,100,30.08,-9999.0,SSE,9.2,-,N/A,,Unknown,150,2012-11-05 15:56:00
9:56 AM,43.0,37.9,82,30.04,-9999.0,South,9.2,-,N/A,,Unknown,180,2012-11-05 16:56:00
10:56 AM,46.9,37.0,68,29.99,-9999.0,South,11.5,-,N/A,,Unknown,180,2012-11-05 17:56:00
11:56 AM,52.0,37.0,57,29.93,-9999.0,South,12.7,-,N/A,,Unknown,190,2012-11-05 18:56:00
12:56 PM,59.0,39.0,48,29.88,-9999.0,SW,12.7,-,N/A,,Unknown,220,2012-11-05 19:56:00
1:56 PM,62.1,39.0,43,29.85,-9999.0,West,20.7,-,N/A,,Unknown,270,2012-11-05 20:56:00
2:56 PM,62.1,39.0,43,29.85,-9999.0,West,15.0,-,N/A,,Unknown,270,2012-11-05 21:56:00
3:56 PM,61.0,39.0,44,29.86,-9999.0,West,13.8,-,N/A,,Unknown,270,2012-11-05 22:56:00
4:56 PM,55.9,39.0,53,29.88,-9999.0,West,12.7,-,N/A,,Unknown,270,2012-11-05 23:56:00
5:34 PM,59.0,42.1,53,29.86,-9999.0,NNW,28.8,40.3,N/A,,Unknown,330,2012-11-06 00:34:00
5:56 PM,53.1,46.9,80,29.95,-9999.0,NW,24.2,40.3,0.02,,Unknown,310,2012-11-06 00:56:00
6:56 PM,50.0,45.0,83,29.95,-9999.0,WNW,19.6,-,0.01,,Unknown,300,2012-11-06 01:56:00
7:56 PM,46.9,37.9,71,29.96,-9999.0,North,31.1,39.1,N/A,,Unknown,350,2012-11-06 02:56:00
8:56 PM,41.0,34.0,76,30.04,-9999.0,NW,19.6,-,N/A,,Unknown,320,2012-11-06 03:56:00
9:56 PM,36.0,32.0,86,30.04,-9999.0,WNW,15.0,-,N/A,,Unknown,290,2012-11-06 04:56:00
10:56 PM,36.0,30.9,82,30.04,-9999.0,WNW,20.7,-,N/A,,Unknown,300,2012-11-06 05:56:00
11:56 PM,37.0,30.9,79,30.04,-9999.0,NW,20.7,-,N/A,,Unknown,310,2012-11-06 06:56:00